NOAA NWS Hourly Roundups by Site

Regional Weather Roundup for Omaha, NE

To Select Another Site Choose from List

Select Site:  

000
ASUS43 KOAX 250910
RWRNE

WEATHER ROUNDUP FOR NEBRASKA
NATIONAL WEATHER SERVICE OMAHA NE
400 AM CDT FRI SEP 25 2020

NOTES: SATELLITE DATA IS BEING USED TO AUGMENT CLOUD COVER ABOVE
       12000 FEET.
       "FAIR" INDICATES FEW OR NO CLOUDS BELOW 12,000 FEET WITH NO
       SIGNIFICANT WEATHER AND/OR OBSTRUCTIONS TO VISIBILITY.


NEZ001>004-019>022-054>056-251000-
NEBRASKA PANHANDLE

CITY           SKY/WX    TMP DP  RH WIND       PRES   REMARKS
SCOTTSBLUFF    CLEAR     53  39  59 NW9       29.89R
ALLIANCE       CLEAR     64  34  32 N18G26    29.86R
CHADRON        CLEAR     55  36  48 CALM      29.87R
GORDON         FAIR      60  35  38 NW7       29.85R
KIMBALL        PTCLDY    58  30  34 NW15      29.92S
SIDNEY         CLEAR     60  29  30 W8        29.87R
$$

NEZ057>060-069>072-079>082-251000-
SOUTHWEST NEBRASKA

CITY           SKY/WX    TMP DP  RH WIND       PRES   REMARKS
NORTH PLATTE   CLEAR     54  46  74 NW3       29.79F
IMPERIAL       CLEAR     56  36  47 SW6       29.82F
LEXINGTON      CLEAR     53  50  90 CALM      29.78S
MCCOOK         CLEAR     54  43  66 NW6       29.80S
OGALLALA       CLEAR     55  39  54 W3        29.82S
$$

NEZ005>010-023>029-035>040-094-251000-
NORTH CENTRAL NEBRASKA

CITY           SKY/WX    TMP DP  RH WIND       PRES   REMARKS
VALENTINE      CLEAR     71  38  29 W15G24    29.74F
AINSWORTH      CLEAR     64  55  71 SW14      29.71F
BROKEN BOW     CLEAR     55  51  86 CALM      29.76F
O`NEILL        CLEAR     61  55  81 S6        29.71F
ORD            CLEAR     52  49  89 CALM      29.74F
THEDFORD       CLEAR     68  45  44 SW12      29.76F
$$

NEZ041-046>049-061>064-073>077-083>087-251000-
SOUTH CENTRAL NEBRASKA

CITY           SKY/WX    TMP DP  RH WIND       PRES   REMARKS
GRAND ISLAND   CLEAR     63  56  78 S9        29.76F
AURORA         CLEAR     63  59  87 S6        29.77S
HASTINGS       CLEAR     64  56  75 S7        29.78S
HEBRON         CLEAR     63  60  90 CALM      29.78S
HOLDREGE       CLEAR     62  52  71 S7        29.77F
KEARNEY        CLEAR     58  53  84 S6        29.77F
YORK           CLEAR     63  59  88 S7        29.76F
$$

NEZ011>018-030>034-042>045-251000-
NORTHEAST NEBRASKA

CITY           SKY/WX    TMP DP  RH WIND       PRES   REMARKS
NORFOLK        CLEAR     55  51  86 CALM      29.73F
ALBION         CLEAR     54  52  94 CALM      29.74F
BLAIR          CLEAR     64  57  80 S6        29.77F
COLUMBUS       CLEAR     54  53  97 CALM      29.75F
FREMONT        CLEAR     64  61  91 SE5       29.76F
TEKAMAH        CLEAR     54  52  93 S6        29.75F
WAYNE          CLEAR     50  47  91 CALM      29.73F
$$

NEZ050>053-065>068-078-088>093-251000-
SOUTHEAST NEBRASKA

CITY           SKY/WX    TMP DP  RH WIND       PRES   REMARKS
LINCOLN        CLEAR     63  60  90 S6        29.77F
OMAHA EPPLEY   CLEAR     66  62  87 S9        29.78S
BEATRICE       CLEAR     64  61  91 SE3       29.79F
FALLS CITY     CLEAR     64  60  87 SE6       29.81F
NEBRASKA CITY  CLEAR     63  63 100 S8        29.80F
PLATTSMOUTH    CLEAR     64  62  92 SE8       29.79S
$$

NEZ044-045-051>053-067-251000-
OMAHA AREA

CITY           SKY/WX    TMP DP  RH WIND       PRES   REMARKS
OMAHA EPPLEY   CLEAR     66  62  87 S9        29.78S
BLAIR          CLEAR     64  57  80 S6        29.77F
FREMONT        CLEAR     64  61  91 SE5       29.76F
MILLARD        CLEAR     64  60  88 SE6       29.78S
OFFUTT AFB     CLEAR     64  60  89 SE6       29.78F
PLATTSMOUTH    CLEAR     64  62  92 SE8       29.79S
WAHOO          FAIR      59  59 100 SE5       29.77S
$$


 

View Past Reports for Omaha, NE.

Products Courtesy of NOAA-NWS
NWS Information Parsing Script by Ken True at Saratoga Weather - Script by SE Lincoln Weather.